M I D A S
Marine Information and Data Acquisition System
Tripno 2256 of the Zeeleeuw from 2012-01-18 07:40:16 to 2012-01-18 16:54:26
Back to CruiseResearch ActivitiesStationsMapUnderway DataData graphs

EquipmentUnitsComments
TimeDGPSUTC
LatitudeDGPSDM.mWGS84
LongitudeDGPSDM.mWGS84
SpeedMeteo Stationm/sRelative wind speed
DirectionMeteo StationdegRelative wind direction
TemperatureMeteo Stationdeg CelciusAir temperature
PressureMeteo StationPaAtmospheric pressure
HumidityMeteo Station%Relative humidity
Missing or incorrect values are displayed as -999
Metereological data collected by the RV Zeeleeuw from 2012-01-18 07:39:57 to 2012-01-18 17:03:28
                                                                                    Next 1000 lines
Time Latitude Longitude Speed Direction Temperature Pressure Humidity
2012-01-18 07:40:07 51°13.634 2°56.018 3.3 4 1.4 102680 48
2012-01-18 07:40:12 51°13.634 2°56.018 5 10 1.5 102680 48
2012-01-18 07:40:16 51°13.634 2°56.018 3.8 18 1.5 102680 48
2012-01-18 07:40:21 51°13.635 2°56.016 4.3 24 1.5 102680 49
2012-01-18 07:40:27 51°13.635 2°56.013 4.5 29 1.5 102680 49
2012-01-18 07:40:32 51°13.636 2°56.008 4.6 21 1.5 102680 46
2012-01-18 07:40:37 51°13.638 2°56.002 4.4 22 1.5 102680 46
2012-01-18 07:40:42 51°13.639 2°55.996 4.5 33 1.5 102680 48
2012-01-18 07:40:47 51°13.641 2°55.989 4.1 30 1.5 102680 48
2012-01-18 07:40:53 51°13.643 2°55.979 4.2 16 1.5 102680 46
2012-01-18 07:40:57 51°13.644 2°55.971 3.7 24 1.5 102680 46
2012-01-18 07:41:02 51°13.645 2°55.962 3.9 41 1.5 102680 48
2012-01-18 07:41:07 51°13.647 2°55.953 5.2 33 1.5 102680 48
2012-01-18 07:41:13 51°13.649 2°55.942 4.9 29 1.5 102680 48
2012-01-18 07:41:18 51°13.651 2°55.934 4.6 39 1.5 102680 48
2012-01-18 07:41:22 51°13.653 2°55.927 5.8 21 1.5 102680 48
2012-01-18 07:41:28 51°13.655 2°55.916 5.1 27 1.5 102680 48
2012-01-18 07:41:33 51°13.657 2°55.908 5.3 21 1.5 102680 48
2012-01-18 07:41:37 51°13.658 2°55.901 4.2 23 1.5 102680 48
2012-01-18 07:41:42 51°13.661 2°55.892 4.1 27 1.5 102680 47
2012-01-18 07:41:47 51°13.663 2°55.884 4.2 38 1.5 102680 47
2012-01-18 07:41:53 51°13.667 2°55.874 5.4 36 1.5 102680 46
2012-01-18 07:41:58 51°13.669 2°55.866 6 31 1.5 102680 46
2012-01-18 07:42:03 51°13.672 2°55.858 5.5 28 1.5 102680 48
2012-01-18 07:42:07 51°13.675 2°55.851 4.2 25 1.5 102680 48
2012-01-18 07:42:13 51°13.678 2°55.841 5.4 12 1.5 102680 47
2012-01-18 07:42:18 51°13.681 2°55.832 4.9 25 1.5 102680 47
2012-01-18 07:42:23 51°13.685 2°55.823 3.7 30 1.5 102680 46
2012-01-18 07:42:27 51°13.688 2°55.817 3.5 30 1.5 102680 46
2012-01-18 07:42:32 51°13.692 2°55.808 3.4 19 1.5 102670 47
2012-01-18 07:42:38 51°13.698 2°55.798 4 27 1.5 102670 47
2012-01-18 07:42:43 51°13.702 2°55.789 3.2 31 1.5 102670 48
2012-01-18 07:42:47 51°13.706 2°55.783 5.4 29 1.5 102670 48
2012-01-18 07:42:53 51°13.712 2°55.773 4.1 42 1.5 102680 46
2012-01-18 07:42:58 51°13.718 2°55.764 4.6 32 1.5 102680 46
2012-01-18 07:43:03 51°13.723 2°55.756 4.9 30 1.5 102680 47
2012-01-18 07:43:07 51°13.727 2°55.749 5.6 20 1.5 102680 47
2012-01-18 07:43:13 51°13.734 2°55.74 4.9 23 1.5 102680 46
2012-01-18 07:43:18 51°13.739 2°55.732 3.8 28 1.5 102680 46
2012-01-18 07:43:23 51°13.745 2°55.724 3.3 25 1.5 102680 47
2012-01-18 07:43:28 51°13.75 2°55.715 2.8 18 1.5 102680 47
2012-01-18 07:43:32 51°13.755 2°55.709 2.4 22 1.5 102680 48
2012-01-18 07:43:38 51°13.762 2°55.7 3 5 1.5 102680 48
2012-01-18 07:43:43 51°13.768 2°55.692 2.9 22 1.5 102680 46
2012-01-18 07:43:48 51°13.775 2°55.685 4.3 6 1.5 102680 46
2012-01-18 07:43:52 51°13.78 2°55.679 3.3 360 1.5 102680 45
2012-01-18 07:43:57 51°13.786 2°55.671 3.2 10 1.5 102680 45
2012-01-18 07:44:02 51°13.792 2°55.664 1.8 23 1.5 102680 48
2012-01-18 07:44:07 51°13.798 2°55.657 3.3 13 1.5 102680 48
2012-01-18 07:44:13 51°13.806 2°55.65 3.9 12 1.5 102680 49
2012-01-18 07:44:18 51°13.813 2°55.644 2.2 5 1.5 102680 49
2012-01-18 07:44:23 51°13.819 2°55.638 2.3 357 1.5 102680 44
2012-01-18 07:44:28 51°13.825 2°55.633 2.4 353 1.5 102680 44
2012-01-18 07:44:33 51°13.832 2°55.628 2.2 356 1.5 102680 46
2012-01-18 07:44:37 51°13.838 2°55.625 2.8 12 1.5 102680 46
2012-01-18 07:44:43 51°13.846 2°55.62 2.1 16 1.5 102680 46
2012-01-18 07:44:47 51°13.851 2°55.617 3.2 358 1.5 102680 46
2012-01-18 07:44:52 51°13.858 2°55.614 3.7 350 1.5 102680 48
2012-01-18 07:44:57 51°13.864 2°55.612 3.5 337 1.5 102680 48
2012-01-18 07:45:02 51°13.871 2°55.609 3.6 341 1.5 102680 49
2012-01-18 07:45:07 51°13.877 2°55.607 2.4 345 1.5 102680 49
2012-01-18 07:45:12 51°13.884 2°55.606 3.1 358 1.5 102680 46
2012-01-18 07:45:18 51°13.892 2°55.605 2.8 340 1.5 102680 46
2012-01-18 07:45:23 51°13.899 2°55.605 2.9 341 1.5 102670 45
2012-01-18 07:45:28 51°13.905 2°55.605 3.7 328 1.5 102670 45
2012-01-18 07:45:33 51°13.911 2°55.606 2.7 329 1.5 102670 48
2012-01-18 07:45:38 51°13.917 2°55.607 2.9 305 1.5 102670 48
2012-01-18 07:45:43 51°13.923 2°55.609 2.9 333 1.5 102680 45
2012-01-18 07:45:48 51°13.929 2°55.611 2.6 310 1.5 102680 45
2012-01-18 07:45:52 51°13.934 2°55.613 3.1 324 1.5 102680 45
2012-01-18 07:45:57 51°13.938 2°55.616 2.5 308 1.5 102680 45
2012-01-18 07:46:03 51°13.945 2°55.619 3.1 21 1.5 102680 45
2012-01-18 07:46:08 51°13.95 2°55.623 3.2 302 1.5 102680 45
2012-01-18 07:46:13 51°13.954 2°55.626 3.3 21 1.5 102680 49
2012-01-18 07:46:18 51°13.958 2°55.63 3.8 309 1.5 102680 49
2012-01-18 07:46:22 51°13.961 2°55.634 6 22 1.5 102680 48
2012-01-18 07:46:27 51°13.965 2°55.638 6.7 310 1.5 102680 48
2012-01-18 07:46:33 51°13.969 2°55.644 6.2 23 1.5 102680 46
2012-01-18 07:46:38 51°13.972 2°55.649 6 309 1.5 102680 46
2012-01-18 07:46:43 51°13.976 2°55.653 6.1 20 1.5 102680 46
2012-01-18 07:46:47 51°13.977 2°55.656 6.2 311 1.5 102680 46
2012-01-18 07:46:52 51°13.979 2°55.66 6.3 17 1.5 102680 47
2012-01-18 07:46:58 51°13.982 2°55.664 6.4 307 1.5 102680 47
2012-01-18 07:47:03 51°13.983 2°55.666 4.7 17 1.5 102680 44
2012-01-18 07:47:07 51°13.984 2°55.668 6.4 305 1.5 102680 44
2012-01-18 07:47:12 51°13.985 2°55.668 7.3 17 1.5 102680 46
2012-01-18 07:47:17 51°13.985 2°55.668 5 310 1.5 102680 46
2012-01-18 07:47:23 51°13.986 2°55.667 5.3 251 1.5 102680 46
2012-01-18 07:47:28 51°13.987 2°55.664 5 310 1.5 102680 46
2012-01-18 07:47:32 51°13.987 2°55.661 5.3 255 1.5 102680 47
2012-01-18 07:47:37 51°13.988 2°55.656 6.9 306 1.5 102680 47
2012-01-18 07:47:42 51°13.989 2°55.65 7 259 1.5 102670 48
2012-01-18 07:47:47 51°13.991 2°55.644 6.1 304 1.5 102670 48
2012-01-18 07:47:52 51°13.993 2°55.636 5.2 251 1.5 102680 46
2012-01-18 07:47:57 51°13.996 2°55.627 6.2 309 1.5 102680 46
2012-01-18 07:48:02 51°13.999 2°55.618 5.8 257 1.5 102680 46
2012-01-18 07:48:07 51°14.002 2°55.608 5.9 305 1.5 102680 46
2012-01-18 07:48:12 51°14.006 2°55.597 5.9 258 1.5 102680 48
2012-01-18 07:48:17 51°14.011 2°55.587 4.3 304 1.5 102680 48
2012-01-18 07:48:22 51°14.016 2°55.576 3.3 261 1.5 102680 48
2012-01-18 07:48:27 51°14.022 2°55.565 4.3 311 1.5 102680 48
2012-01-18 07:48:32 51°14.029 2°55.555 4.5 250 1.5 102670 48
2012-01-18 07:48:38 51°14.038 2°55.542 2.5 308 1.5 102670 48
2012-01-18 07:48:42 51°14.044 2°55.534 2.1 249 1.6 102680 47
2012-01-18 07:48:47 51°14.052 2°55.523 2.8 303 1.6 102680 47
2012-01-18 07:48:53 51°14.061 2°55.509 6.4 248 1.6 102680 48
2012-01-18 07:48:57 51°14.069 2°55.5 4.9 311 1.6 102680 48
2012-01-18 07:49:02 51°14.078 2°55.489 4.5 252 1.6 102680 49
2012-01-18 07:49:08 51°14.089 2°55.477 4.3 309 1.6 102680 49
2012-01-18 07:49:13 51°14.099 2°55.466 4.2 20 1.6 102680 48
2012-01-18 07:49:17 51°14.108 2°55.458 5 310 1.6 102680 48
2012-01-18 07:49:23 51°14.12 2°55.445 5.5 246 1.6 102680 46
2012-01-18 07:49:28 51°14.131 2°55.435 4.8 303 1.6 102680 46
2012-01-18 07:49:33 51°14.142 2°55.424 3.6 251 1.6 102680 48
2012-01-18 07:49:38 51°14.153 2°55.414 2.7 303 1.6 102680 48
2012-01-18 07:49:43 51°14.164 2°55.403 3.4 268 1.6 102680 44
2012-01-18 07:49:48 51°14.175 2°55.392 1.7 302 1.6 102680 44
2012-01-18 07:49:53 51°14.187 2°55.382 0.9 250 1.6 102670 46
2012-01-18 07:49:57 51°14.196 2°55.373 1.7 302 1.6 102670 46
2012-01-18 07:50:03 51°14.21 2°55.36 3.1 252 1.6 102680 46
2012-01-18 07:50:08 51°14.223 2°55.349 2.5 305 1.6 102680 46
2012-01-18 07:50:13 51°14.234 2°55.337 4.1 260 1.6 102680 49
2012-01-18 07:50:17 51°14.244 2°55.329 4.6 305 1.6 102680 49
2012-01-18 07:50:22 51°14.257 2°55.318 4.2 251 1.6 102680 48
2012-01-18 07:50:28 51°14.272 2°55.303 4.1 308 1.6 102680 48
2012-01-18 07:50:33 51°14.284 2°55.292 6 253 1.6 102680 46
2012-01-18 07:50:37 51°14.294 2°55.283 4.4 305 1.6 102680 46
2012-01-18 07:50:43 51°14.309 2°55.269 3.6 26 1.6 102670 47
2012-01-18 07:50:48 51°14.323 2°55.258 3.3 306 1.6 102670 47
2012-01-18 07:50:53 51°14.335 2°55.247 2.5 25 1.6 102670 48
2012-01-18 07:50:57 51°14.345 2°55.237 3.6 308 1.6 102670 48
2012-01-18 07:51:03 51°14.361 2°55.224 4.5 26 1.6 102670 46
2012-01-18 07:51:08 51°14.373 2°55.211 3.3 309 1.6 102670 46
2012-01-18 07:51:13 51°14.386 2°55.199 2.4 247 1.6 102670 46
2012-01-18 07:51:17 51°14.396 2°55.189 3.9 306 1.6 102670 46
2012-01-18 07:51:22 51°14.409 2°55.177 5.4 254 1.6 102670 46
2012-01-18 07:51:27 51°14.422 2°55.165 4.6 304 1.6 102670 46
2012-01-18 07:51:32 51°14.435 2°55.152 3.7 263 1.6 102660 47
2012-01-18 07:51:37 51°14.448 2°55.139 3.8 304 1.6 102660 47
2012-01-18 07:51:41 51°14.458 2°55.129 4.6 256 1.6 102660 48
2012-01-18 07:51:46 51°14.471 2°55.117 5.1 309 1.6 102660 48
2012-01-18 07:51:51 51°14.484 2°55.104 5 254 1.6 102660 48
2012-01-18 07:51:57 51°14.501 2°55.089 5 311 1.6 102660 48
2012-01-18 07:52:01 51°14.511 2°55.079 5.6 254 1.7 102660 47
2012-01-18 07:52:06 51°14.525 2°55.067 3.7 310 1.7 102660 47
2012-01-18 07:52:10 51°14.536 2°55.057 4.6 254 1.7 102660 46
2012-01-18 07:52:15 51°14.55 2°55.044 5 310 1.7 102660 46
2012-01-18 07:52:21 51°14.567 2°55.03 5.7 254 1.7 102670 45
2012-01-18 07:52:25 51°14.578 2°55.02 5.7 304 1.7 102670 45
2012-01-18 07:52:30 51°14.592 2°55.007 5.1 261 1.7 102670 46
2012-01-18 07:52:35 51°14.605 2°54.994 7.1 284 1.7 102670 46
2012-01-18 07:52:40 51°14.619 2°54.981 6.1 255 1.7 102660 49
2012-01-18 07:52:45 51°14.633 2°54.968 5.9 309 1.7 102660 49
2012-01-18 07:52:49 51°14.644 2°54.958 5.6 255 1.7 102660 46
2012-01-18 07:52:54 51°14.658 2°54.945 6 306 1.7 102660 46
2012-01-18 07:52:59 51°14.673 2°54.932 6.3 257 1.7 102660 46
2012-01-18 07:53:05 51°14.691 2°54.919 5.4 305 1.7 102660 46
2012-01-18 07:53:09 51°14.702 2°54.907 4.5 22 1.7 102650 46
2012-01-18 07:53:13 51°14.713 2°54.896 6.8 304 1.7 102650 46
2012-01-18 07:53:19 51°14.731 2°54.879 6.1 256 1.8 102660 49
2012-01-18 07:53:24 51°14.745 2°54.865 7 305 1.8 102660 49
2012-01-18 07:53:29 51°14.76 2°54.85 6.3 254 1.8 102660 46
2012-01-18 07:53:34 51°14.773 2°54.834 7.8 303 1.8 102660 46
2012-01-18 07:53:39 51°14.787 2°54.819 7.6 259 1.8 102650 46
2012-01-18 07:53:44 51°14.802 2°54.804 8.4 305 1.8 102650 46
2012-01-18 07:53:49 51°14.816 2°54.789 6.5 262 1.8 102650 47
2012-01-18 07:53:54 51°14.83 2°54.773 6.1 305 1.8 102650 47
2012-01-18 07:53:59 51°14.845 2°54.758 8 260 1.8 102650 48
2012-01-18 07:54:04 51°14.859 2°54.743 10.3 307 1.8 102650 48
2012-01-18 07:54:09 51°14.874 2°54.728 7.7 256 1.8 102660 46
2012-01-18 07:54:14 51°14.888 2°54.712 7.4 309 1.8 102660 46
2012-01-18 07:54:19 51°14.902 2°54.695 8 248 1.8 102660 48
2012-01-18 07:54:24 51°14.915 2°54.679 7.1 309 1.8 102660 48
2012-01-18 07:54:29 51°14.928 2°54.662 6.7 251 1.8 102660 47
2012-01-18 07:54:34 51°14.941 2°54.644 9.8 310 1.8 102660 47
2012-01-18 07:54:39 51°14.954 2°54.626 7 258 1.8 102650 46
2012-01-18 07:54:45 51°14.971 2°54.606 6.8 305 1.8 102650 46
2012-01-18 07:54:49 51°14.982 2°54.594 5.5 258 1.8 102650 46
2012-01-18 07:54:54 51°14.997 2°54.579 6.1 307 1.8 102650 46
2012-01-18 07:54:59 51°15.011 2°54.564 5.9 256 1.8 102640 46
2012-01-18 07:55:04 51°15.026 2°54.55 6.4 308 1.8 102640 46
2012-01-18 07:55:09 51°15.041 2°54.535 5.1 262 1.8 102650 47
2012-01-18 07:55:14 51°15.056 2°54.522 5.7 310 1.8 102650 47
2012-01-18 07:55:19 51°15.072 2°54.509 6.8 262 1.9 102640 46
2012-01-18 07:55:25 51°15.09 2°54.494 6.5 307 1.9 102640 46
2012-01-18 07:55:29 51°15.102 2°54.483 7.1 261 1.8 102650 46
2012-01-18 07:55:34 51°15.118 2°54.469 6.5 304 1.8 102650 46
2012-01-18 07:55:39 51°15.132 2°54.454 6.7 255 1.9 102650 48
2012-01-18 07:55:44 51°15.146 2°54.438 6.6 311 1.9 102650 48
2012-01-18 07:55:49 51°15.16 2°54.422 5.7 253 1.9 102650 48
2012-01-18 07:55:54 51°15.174 2°54.407 7.1 303 1.9 102650 48
2012-01-18 07:55:59 51°15.188 2°54.39 8.5 257 1.9 102640 48
2012-01-18 07:56:04 51°15.203 2°54.375 7.3 304 1.9 102640 48
2012-01-18 07:56:09 51°15.217 2°54.359 8 258 1.9 102640 49
2012-01-18 07:56:14 51°15.232 2°54.345 6.5 309 1.9 102640 49
2012-01-18 07:56:19 51°15.248 2°54.331 7.2 262 1.9 102630 48
2012-01-18 07:56:24 51°15.263 2°54.318 6.2 306 1.9 102630 48
2012-01-18 07:56:29 51°15.279 2°54.306 4.4 261 2 102640 48
2012-01-18 07:56:34 51°15.295 2°54.294 6.6 309 2 102640 48
2012-01-18 07:56:39 51°15.311 2°54.282 3.6 263 2 102650 47
2012-01-18 07:56:44 51°15.327 2°54.272 5 305 2 102650 47
2012-01-18 07:56:49 51°15.343 2°54.259 4.1 263 2 102640 48
2012-01-18 07:56:54 51°15.358 2°54.247 7.3 305 2 102640 48
2012-01-18 07:56:59 51°15.373 2°54.232 6.6 256 2 102640 47
2012-01-18 07:57:04 51°15.388 2°54.216 8.7 305 2 102640 47
2012-01-18 07:57:09 51°15.401 2°54.2 8.8 254 2 102650 48
2012-01-18 07:57:14 51°15.414 2°54.182 7.4 308 2 102650 48
2012-01-18 07:57:19 51°15.426 2°54.164 8.1 256 2 102640 48
2012-01-18 07:57:24 51°15.44 2°54.146 10.1 311 2 102640 48
2012-01-18 07:57:29 51°15.453 2°54.128 8.8 255 2 102630 46
2012-01-18 07:57:34 51°15.466 2°54.111 8.3 303 2 102630 46
2012-01-18 07:57:39 51°15.479 2°54.094 8.1 257 2 102630 45
2012-01-18 07:57:45 51°15.495 2°54.073 6 310 2 102630 45
2012-01-18 07:57:49 51°15.506 2°54.059 8.1 257 2.1 102630 48
2012-01-18 07:57:54 51°15.518 2°54.041 9.5 303 2.1 102630 48
2012-01-18 07:57:59 51°15.531 2°54.023 7.8 258 2.1 102630 48
2012-01-18 07:58:04 51°15.544 2°54.004 6.6 310 2.1 102630 48
2012-01-18 07:58:09 51°15.556 2°53.986 7.9 250 2.1 102630 47
2012-01-18 07:58:14 51°15.568 2°53.967 8.2 307 2.1 102630 47
2012-01-18 07:58:19 51°15.58 2°53.948 8.4 250 2.1 102630 46
2012-01-18 07:58:25 51°15.594 2°53.925 9.5 306 2.1 102630 46
2012-01-18 07:58:29 51°15.603 2°53.909 8.4 20 2.1 102630 47
2012-01-18 07:58:34 51°15.615 2°53.889 7.7 306 2.1 102630 47
2012-01-18 07:58:39 51°15.626 2°53.869 7.9 255 2.1 102620 48
2012-01-18 07:58:44 51°15.638 2°53.85 8 304 2.1 102620 48
2012-01-18 07:58:49 51°15.65 2°53.831 7.8 253 2.2 102630 48
2012-01-18 07:58:54 51°15.662 2°53.812 8.3 305 2.2 102630 48
2012-01-18 07:58:59 51°15.675 2°53.793 7.9 253 2.2 102620 49
2012-01-18 07:59:05 51°15.689 2°53.771 7.6 310 2.2 102620 49
2012-01-18 07:59:09 51°15.699 2°53.757 4.5 253 2.2 102620 46
2012-01-18 07:59:14 51°15.712 2°53.74 7.6 306 2.2 102620 46
2012-01-18 07:59:19 51°15.726 2°53.722 9.5 257 2.2 102630 46
2012-01-18 07:59:24 51°15.738 2°53.704 11.1 304 2.2 102630 46
2012-01-18 07:59:29 51°15.751 2°53.686 11.2 259 2.2 102620 48
2012-01-18 07:59:34 51°15.763 2°53.667 8.2 307 2.2 102620 48
2012-01-18 07:59:39 51°15.776 2°53.649 8.7 252 2.2 102630 47
2012-01-18 07:59:45 51°15.791 2°53.627 9.1 303 2.2 102630 47
2012-01-18 07:59:49 51°15.8 2°53.612 10.9 250 2.2 102620 48
2012-01-18 07:59:54 51°15.812 2°53.592 8.9 306 2.2 102620 48
2012-01-18 07:59:59 51°15.824 2°53.572 10.5 255 2.2 102630 46
2012-01-18 08:00:04 51°15.836 2°53.555 9 308 2.2 102630 46
2012-01-18 08:00:09 51°15.849 2°53.537 10 256 2.3 102620 47
2012-01-18 08:00:14 51°15.863 2°53.52 6.6 304 2.3 102620 47
2012-01-18 08:00:19 51°15.876 2°53.504 7.1 256 2.3 102610 47
2012-01-18 08:00:25 51°15.893 2°53.486 6 306 2.3 102610 47
2012-01-18 08:00:29 51°15.905 2°53.475 5.9 261 2.3 102620 46
2012-01-18 08:00:34 51°15.921 2°53.462 6.4 303 2.3 102620 46
2012-01-18 08:00:39 51°15.936 2°53.449 6.4 258 2.3 102630 49
2012-01-18 08:00:44 51°15.951 2°53.437 7.5 304 2.3 102630 49
2012-01-18 08:00:49 51°15.967 2°53.424 8.7 258 2.3 102620 46
2012-01-18 08:00:54 51°15.983 2°53.411 7.4 306 2.3 102620 46
2012-01-18 08:00:59 51°15.998 2°53.399 6.5 263 2.3 102640 49
2012-01-18 08:01:05 51°16.016 2°53.383 7.5 303 2.3 102640 49
2012-01-18 08:01:09 51°16.028 2°53.372 7.6 260 2.3 102630 47
2012-01-18 08:01:14 51°16.044 2°53.359 8.6 309 2.3 102630 47
2012-01-18 08:01:19 51°16.059 2°53.346 7.6 257 2.3 102630 46
2012-01-18 08:01:24 51°16.075 2°53.334 6.7 310 2.3 102630 46
2012-01-18 08:01:29 51°16.09 2°53.321 5.3 263 2.3 102640 48
2012-01-18 08:01:34 51°16.106 2°53.309 8.2 284 2.3 102640 48
2012-01-18 08:01:39 51°16.122 2°53.298 4.9 262 2.3 102640 46
2012-01-18 08:01:45 51°16.141 2°53.284 6.7 307 2.3 102640 46
2012-01-18 08:01:49 51°16.154 2°53.275 6.7 262 2.3 102640 48
2012-01-18 08:01:54 51°16.171 2°53.264 5.8 306 2.3 102640 48
2012-01-18 08:01:59 51°16.187 2°53.253 7.1 261 2.3 102640 48
2012-01-18 08:02:04 51°16.203 2°53.242 5.9 309 2.3 102640 48
2012-01-18 08:02:09 51°16.219 2°53.23 5.1 261 2.3 102640 48
2012-01-18 08:02:14 51°16.234 2°53.218 6.7 305 2.3 102640 48
2012-01-18 08:02:19 51°16.25 2°53.207 6.7 261 2.3 102640 47
2012-01-18 08:02:25 51°16.269 2°53.193 7.4 305 2.3 102640 47
2012-01-18 08:02:29 51°16.282 2°53.184 6.1 263 2.3 102640 49
2012-01-18 08:02:34 51°16.298 2°53.172 8.1 309 2.3 102640 49
2012-01-18 08:02:39 51°16.314 2°53.16 9.3 260 2.3 102650 47
2012-01-18 08:02:44 51°16.33 2°53.149 4.6 305 2.3 102650 47
2012-01-18 08:02:49 51°16.345 2°53.136 7 262 2.3 102640 48
2012-01-18 08:02:54 51°16.362 2°53.125 7.7 308 2.3 102640 48
2012-01-18 08:02:59 51°16.378 2°53.113 8.3 259 2.3 102640 45
2012-01-18 08:03:05 51°16.396 2°53.098 6 307 2.3 102640 45
2012-01-18 08:03:09 51°16.408 2°53.088 7.7 260 2.3 102640 48
2012-01-18 08:03:14 51°16.424 2°53.076 6.6 304 2.3 102640 48
2012-01-18 08:03:19 51°16.44 2°53.064 6.7 257 2.4 102640 48
2012-01-18 08:03:24 51°16.456 2°53.051 6.2 303 2.4 102640 48
2012-01-18 08:03:29 51°16.471 2°53.038 5.9 262 2.4 102640 49
2012-01-18 08:03:34 51°16.486 2°53.025 4.9 280 2.4 102640 49
2012-01-18 08:03:39 51°16.502 2°53.011 6.4 263 2.4 102640 49
2012-01-18 08:03:45 51°16.519 2°52.994 8.1 311 2.4 102640 49
2012-01-18 08:03:49 51°16.531 2°52.982 7.6 260 2.4 102630 49
2012-01-18 08:03:54 51°16.546 2°52.968 8.2 303 2.4 102630 49
2012-01-18 08:03:59 51°16.561 2°52.953 7.5 263 2.4 102630 48
2012-01-18 08:04:04 51°16.575 2°52.939 7.9 302 2.4 102630 48
2012-01-18 08:04:09 51°16.59 2°52.924 7.1 260 2.4 102630 47
2012-01-18 08:04:14 51°16.605 2°52.909 8.8 307 2.4 102630 47
2012-01-18 08:04:19 51°16.62 2°52.895 10.3 257 2.4 102640 47
2012-01-18 08:04:25 51°16.638 2°52.878 8.2 306 2.4 102640 47
2012-01-18 08:04:29 51°16.649 2°52.867 7.7 257 2.4 102640 48
2012-01-18 08:04:34 51°16.665 2°52.854 8.3 308 2.4 102640 48
2012-01-18 08:04:39 51°16.681 2°52.842 6.3 263 2.4 102640 48
2012-01-18 08:04:44 51°16.697 2°52.83 4.6 307 2.4 102640 48
2012-01-18 08:04:49 51°16.713 2°52.818 4.8 264 2.4 102640 46
2012-01-18 08:04:54 51°16.729 2°52.807 4.8 305 2.4 102640 46
2012-01-18 08:04:59 51°16.745 2°52.796 4.8 261 2.4 102640 47
2012-01-18 08:05:04 51°16.762 2°52.786 5.2 310 2.4 102640 47
2012-01-18 08:05:09 51°16.778 2°52.775 4.2 267 2.4 102640 48
2012-01-18 08:05:14 51°16.794 2°52.764 4 306 2.4 102640 48
2012-01-18 08:05:19 51°16.81 2°52.753 5.9 262 2.4 102640 46
2012-01-18 08:05:25 51°16.83 2°52.74 5 307 2.4 102640 46
2012-01-18 08:05:29 51°16.843 2°52.731 6 265 2.4 102630 49
2012-01-18 08:05:34 51°16.859 2°52.72 4.3 306 2.4 102630 49
2012-01-18 08:05:39 51°16.875 2°52.709 6.7 259 2.4 102640 47
2012-01-18 08:05:45 51°16.894 2°52.694 5.9 307 2.4 102640 47
2012-01-18 08:05:49 51°16.907 2°52.685 6 261 2.4 102640 48
2012-01-18 08:05:54 51°16.922 2°52.673 6.1 303 2.4 102640 48
2012-01-18 08:06:00 51°16.942 2°52.66 6.1 262 2.4 102640 49
2012-01-18 08:06:05 51°16.958 2°52.648 5.6 311 2.4 102640 49
2012-01-18 08:06:09 51°16.971 2°52.639 6.7 255 2.4 102630 47
2012-01-18 08:06:13 51°16.984 2°52.63 6.7 311 2.4 102630 47
2012-01-18 08:06:19 51°17.003 2°52.615 4.6 264 2.4 102640 47
2012-01-18 08:06:25 51°17.022 2°52.601 7.8 310 2.4 102640 47
2012-01-18 08:06:29 51°17.035 2°52.591 6.4 264 2.4 102630 46
2012-01-18 08:06:34 51°17.05 2°52.578 5.4 307 2.4 102630 46
2012-01-18 08:06:39 51°17.066 2°52.565 7.7 260 2.4 102630 46
2012-01-18 08:06:45 51°17.085 2°52.552 5 308 2.4 102630 46
2012-01-18 08:06:49 51°17.098 2°52.544 3.8 263 2.4 102620 47
2012-01-18 08:06:54 51°17.114 2°52.535 5.2 303 2.4 102620 47
2012-01-18 08:06:59 51°17.132 2°52.526 6.7 28 2.5 102620 47
2012-01-18 08:07:04 51°17.149 2°52.517 6 55 2.5 102620 47
2012-01-18 08:07:09 51°17.166 2°52.51 4 268 2.5 102630 47
2012-01-18 08:07:14 51°17.183 2°52.504 4.1 307 2.5 102630 47
2012-01-18 08:07:19 51°17.201 2°52.498 6 20 2.5 102630 49
2012-01-18 08:07:25 51°17.222 2°52.492 4.4 310 2.5 102630 49
2012-01-18 08:07:29 51°17.236 2°52.488 5.1 29 2.5 102630 49
2012-01-18 08:07:34 51°17.254 2°52.483 5.6 56 2.5 102630 49
2012-01-18 08:07:39 51°17.272 2°52.481 5 21 2.5 102630 46
2012-01-18 08:07:45 51°17.294 2°52.475 4.2 303 2.5 102630 46
2012-01-18 08:07:49 51°17.308 2°52.473 5.4 24 2.5 102630 49
2012-01-18 08:07:54 51°17.326 2°52.469 5.1 53 2.5 102630 49
2012-01-18 08:07:59 51°17.344 2°52.465 5.4 269 2.4 102630 44
2012-01-18 08:08:05 51°17.366 2°52.46 5.8 59 2.4 102630 44
2012-01-18 08:08:09 51°17.38 2°52.458 4.9 20 2.4 102630 48
2012-01-18 08:08:14 51°17.398 2°52.453 5.5 55 2.4 102630 48
2012-01-18 08:08:19 51°17.415 2°52.449 4.6 270 2.4 102620 45
2012-01-18 08:08:25 51°17.437 2°52.443 5.3 59 2.4 102620 45
2012-01-18 08:08:29 51°17.452 2°52.44 4.7 27 2.4 102630 47
2012-01-18 08:08:34 51°17.469 2°52.436 4.1 56 2.4 102630 47
2012-01-18 08:08:39 51°17.487 2°52.434 2.6 270 2.3 102620 46
2012-01-18 08:08:45 51°17.509 2°52.431 4.6 57 2.3 102620 46
2012-01-18 08:08:49 51°17.523 2°52.429 4 270 2.3 102620 49
2012-01-18 08:08:54 51°17.542 2°52.427 4.9 61 2.3 102620 49
2012-01-18 08:08:59 51°17.56 2°52.425 4.9 21 2.3 102640 46
2012-01-18 08:09:05 51°17.582 2°52.424 5.1 50 2.3 102640 46
2012-01-18 08:09:09 51°17.597 2°52.424 4.5 21 2.3 102630 46
2012-01-18 08:09:14 51°17.614 2°52.423 2.6 51 2.3 102630 46
2012-01-18 08:09:19 51°17.632 2°52.423 4.4 18 2.4 102630 46
2012-01-18 08:09:24 51°17.651 2°52.422 4.3 53 2.4 102630 46
2012-01-18 08:09:29 51°17.668 2°52.42 4.3 23 2.4 102630 49
2012-01-18 08:09:34 51°17.687 2°52.418 4.4 56 2.4 102630 49
2012-01-18 08:09:39 51°17.706 2°52.416 3.7 18 2.3 102630 47
2012-01-18 08:09:45 51°17.727 2°52.415 4.2 50 2.3 102630 47
2012-01-18 08:09:49 51°17.742 2°52.415 3.7 270 2.3 102630 47
2012-01-18 08:09:54 51°17.761 2°52.415 4 58 2.3 102630 47
2012-01-18 08:09:59 51°17.779 2°52.414 2.5 26 2.3 102630 48
2012-01-18 08:10:05 51°17.801 2°52.415 3.9 52 2.3 102630 48
2012-01-18 08:10:09 51°17.816 2°52.414 4.2 20 2.3 102640 48
2012-01-18 08:10:14 51°17.835 2°52.413 3 308 2.3 102640 48
2012-01-18 08:10:20 51°17.856 2°52.413 3.7 26 2.3 102630 48
2012-01-18 08:10:25 51°17.875 2°52.412 4.5 52 2.3 102630 48
2012-01-18 08:10:29 51°17.89 2°52.413 4.9 26 2.4 102620 46
2012-01-18 08:10:34 51°17.908 2°52.412 3.9 50 2.4 102620 46
2012-01-18 08:10:39 51°17.926 2°52.411 3.2 24 2.4 102630 49
2012-01-18 08:10:45 51°17.948 2°52.412 3.3 49 2.4 102630 49
2012-01-18 08:10:49 51°17.963 2°52.411 3.6 24 2.4 102630 46
2012-01-18 08:10:54 51°17.981 2°52.411 3.1 57 2.4 102630 46
2012-01-18 08:10:59 51°17.999 2°52.41 3.7 27 2.4 102630 47
2012-01-18 08:11:04 51°18.018 2°52.409 3.5 59 2.4 102630 47
2012-01-18 08:11:09 51°18.035 2°52.408 3.9 23 2.4 102620 46
2012-01-18 08:11:14 51°18.053 2°52.406 4 53 2.4 102620 46
2012-01-18 08:11:19 51°18.071 2°52.403 4.6 27 2.4 102630 49
2012-01-18 08:11:25 51°18.093 2°52.399 5 312 2.4 102630 49
2012-01-18 08:11:29 51°18.107 2°52.397 5.1 24 2.4 102630 46
2012-01-18 08:11:34 51°18.125 2°52.394 4.8 56 2.4 102630 46
2012-01-18 08:11:39 51°18.142 2°52.39 5.4 268 2.4 102620 49
2012-01-18 08:11:44 51°18.161 2°52.388 4.7 51 2.4 102620 49
2012-01-18 08:11:49 51°18.178 2°52.385 5.7 21 2.4 102630 46
2012-01-18 08:11:54 51°18.196 2°52.382 4.7 49 2.4 102630 46
2012-01-18 08:11:59 51°18.214 2°52.377 4.1 24 2.4 102630 48
2012-01-18 08:12:04 51°18.231 2°52.374 4.3 268 2.4 102630 48
2012-01-18 08:12:09 51°18.249 2°52.371 3.2 344 2.4 102620 49
2012-01-18 08:12:14 51°18.267 2°52.366 4.3 54 2.4 102620 49
2012-01-18 08:12:19 51°18.285 2°52.363 5.4 24 2.4 102630 46
2012-01-18 08:12:25 51°18.306 2°52.358 4.7 49 2.4 102630 46
2012-01-18 08:12:29 51°18.32 2°52.357 5.6 25 2.4 102620 48
2012-01-18 08:12:34 51°18.338 2°52.352 3.7 55 2.4 102620 48
2012-01-18 08:12:39 51°18.356 2°52.352 4.4 18 2.4 102620 47
2012-01-18 08:12:45 51°18.377 2°52.348 4.3 79 2.4 102620 47
2012-01-18 08:12:49 51°18.392 2°52.347 4.2 25 2.4 102620 47
2012-01-18 08:12:54 51°18.409 2°52.347 4.4 51 2.4 102620 47
2012-01-18 08:12:59 51°18.427 2°52.346 3.8 18 2.4 102620 48
2012-01-18 08:13:05 51°18.449 2°52.345 4.5 54 2.4 102620 48
2012-01-18 08:13:09 51°18.464 2°52.345 4.7 24 2.4 102620 49
2012-01-18 08:13:14 51°18.482 2°52.343 5.5 51 2.4 102620 49
2012-01-18 08:13:19 51°18.5 2°52.343 5.3 19 2.4 102610 49
2012-01-18 08:13:25 51°18.522 2°52.34 5.5 50 2.4 102610 49
2012-01-18 08:13:29 51°18.536 2°52.339 5.3 25 2.4 102620 46
2012-01-18 08:13:34 51°18.555 2°52.337 5.7 51 2.4 102620 46
2012-01-18 08:13:39 51°18.572 2°52.337 4.7 22 2.4 102620 47
2012-01-18 08:13:45 51°18.594 2°52.334 4.3 55 2.4 102620 47
2012-01-18 08:13:49 51°18.609 2°52.334 5 20 2.4 102620 49
2012-01-18 08:13:54 51°18.627 2°52.333 4.9 55 2.4 102620 49
2012-01-18 08:13:59 51°18.645 2°52.333 4.9 25 2.4 102620 49
2012-01-18 08:14:05 51°18.667 2°52.332 3.4 56 2.4 102620 49
2012-01-18 08:14:09 51°18.682 2°52.333 3.8 22 2.4 102610 45
2012-01-18 08:14:14 51°18.701 2°52.332 3.6 51 2.4 102610 45
2012-01-18 08:14:19 51°18.719 2°52.332 4.3 17 2.4 102620 46
2012-01-18 08:14:25 51°18.741 2°52.332 5.3 56 2.4 102620 46
2012-01-18 08:14:29 51°18.755 2°52.332 4.9 23 2.4 102610 49
2012-01-18 08:14:34 51°18.773 2°52.333 4.8 50 2.4 102610 49
2012-01-18 08:14:39 51°18.791 2°52.332 4.3 24 2.5 102620 48
2012-01-18 08:14:44 51°18.81 2°52.331 4.6 54 2.5 102620 48
2012-01-18 08:14:49 51°18.828 2°52.33 5.2 19 2.5 102610 49
2012-01-18 08:14:53 51°18.842 2°52.328 4.3 55 2.5 102610 49
2012-01-18 08:14:59 51°18.863 2°52.325 4.9 21 2.5 102610 48
2012-01-18 08:15:04 51°18.882 2°52.322 4.7 50 2.5 102610 48
2012-01-18 08:15:09 51°18.899 2°52.32 4.1 269 2.5 102610 47
2012-01-18 08:15:14 51°18.918 2°52.316 3.7 57 2.5 102610 47
2012-01-18 08:15:19 51°18.936 2°52.313 3.7 270 2.5 102610 46
2012-01-18 08:15:25 51°18.957 2°52.309 5.6 55 2.5 102610 46
2012-01-18 08:15:29 51°18.972 2°52.307 5.8 21 2.5 102610 50
2012-01-18 08:15:34 51°18.99 2°52.304 3.5 310 2.5 102610 50
2012-01-18 08:15:39 51°19.008 2°52.302 4.8 268 2.6 102610 49
2012-01-18 08:15:44 51°19.026 2°52.3 5.8 51 2.6 102610 49
2012-01-18 08:15:49 51°19.044 2°52.297 6.1 26 2.6 102610 47
2012-01-18 08:15:54 51°19.062 2°52.295 7.6 51 2.6 102610 47
2012-01-18 08:15:59 51°19.08 2°52.293 6.1 21 2.6 102610 49
2012-01-18 08:16:04 51°19.097 2°52.29 6.2 54 2.6 102610 49
2012-01-18 08:16:09 51°19.116 2°52.287 5.9 26 2.6 102600 47
2012-01-18 08:16:14 51°19.134 2°52.284 6.8 55 2.6 102600 47
2012-01-18 08:16:19 51°19.152 2°52.282 5.4 26 2.6 102610 46
2012-01-18 08:16:24 51°19.17 2°52.281 5.8 49 2.6 102610 46
2012-01-18 08:16:29 51°19.189 2°52.28 5.7 17 2.6 102600 46
2012-01-18 08:16:34 51°19.206 2°52.28 5.4 55 2.6 102600 46
2012-01-18 08:16:39 51°19.224 2°52.278 5.7 18 2.5 102610 46
2012-01-18 08:16:44 51°19.242 2°52.278 5.5 54 2.5 102610 46
2012-01-18 08:16:49 51°19.261 2°52.278 5 22 2.5 102610 45
2012-01-18 08:16:54 51°19.279 2°52.28 4.7 56 2.5 102610 45
2012-01-18 08:16:59 51°19.297 2°52.28 4.4 20 2.5 102610 47
2012-01-18 08:17:05 51°19.319 2°52.282 4.2 55 2.5 102610 47
2012-01-18 08:17:09 51°19.334 2°52.282 4.3 20 2.5 102610 46
2012-01-18 08:17:14 51°19.351 2°52.283 2.9 56 2.5 102610 46
2012-01-18 08:17:20 51°19.373 2°52.284 2.5 24 2.5 102600 48
2012-01-18 08:17:25 51°19.392 2°52.284 3.5 49 2.5 102600 48
2012-01-18 08:17:29 51°19.406 2°52.285 3.4 23 2.5 102610 49
2012-01-18 08:17:33 51°19.421 2°52.286 3.7 55 2.5 102610 49
2012-01-18 08:17:39 51°19.442 2°52.287 4.9 27 2.5 102600 49
2012-01-18 08:17:45 51°19.465 2°52.289 5.4 51 2.5 102600 49
2012-01-18 08:17:49 51°19.479 2°52.289 5.8 26 2.5 102600 49
2012-01-18 08:17:54 51°19.498 2°52.29 5.7 57 2.5 102600 49
2012-01-18 08:17:59 51°19.516 2°52.291 4.8 19 2.6 102610 49
2012-01-18 08:18:05 51°19.539 2°52.292 5.3 49 2.6 102610 49
2012-01-18 08:18:09 51°19.553 2°52.293 6 24 2.6 102600 49
2012-01-18 08:18:14 51°19.571 2°52.295 4.8 50 2.6 102600 49
2012-01-18 08:18:19 51°19.59 2°52.296 5.7 19 2.6 102590 49
2012-01-18 08:18:24 51°19.609 2°52.297 5.3 55 2.6 102590 49
2012-01-18 08:18:29 51°19.627 2°52.298 5.5 21 2.6 102600 47
2012-01-18 08:18:33 51°19.642 2°52.3 4.6 55 2.6 102600 47
2012-01-18 08:18:39 51°19.664 2°52.301 4.8 21 2.6 102600 48
2012-01-18 08:18:44 51°19.682 2°52.303 4.3 52 2.6 102600 48
2012-01-18 08:18:49 51°19.701 2°52.302 5.1 27 2.6 102600 47
2012-01-18 08:18:54 51°19.719 2°52.304 5 57 2.6 102600 47
2012-01-18 08:18:59 51°19.737 2°52.303 4.6 26 2.5 102590 48
2012-01-18 08:19:05 51°19.76 2°52.303 4.5 53 2.5 102590 48
2012-01-18 08:19:09 51°19.774 2°52.302 6.1 18 2.6 102600 47
2012-01-18 08:19:14 51°19.792 2°52.302 5.1 50 2.6 102600 47
2012-01-18 08:19:19 51°19.811 2°52.3 5.8 20 2.6 102600 47
2012-01-18 08:19:24 51°19.829 2°52.299 5.7 58 2.6 102600 47
2012-01-18 08:19:29 51°19.847 2°52.298 5.1 24 2.6 102600 45
2012-01-18 08:19:34 51°19.865 2°52.298 4.5 56 2.6 102600 45
2012-01-18 08:19:39 51°19.884 2°52.296 4 20 2.6 102590 48
2012-01-18 08:19:44 51°19.902 2°52.295 4.5 311 2.6 102590 48
2012-01-18 08:19:49 51°19.92 2°52.293 4.5 24 2.6 102600 47
2012-01-18 08:19:54 51°19.938 2°52.293 5.6 54 2.6 102600 47
2012-01-18 08:19:59 51°19.956 2°52.292 5.8 22 2.6 102600 46
2012-01-18 08:20:04 51°19.974 2°52.292 5.3 55 2.6 102600 46
2012-01-18 08:20:09 51°19.993 2°52.29 5.7 25 2.6 102590 46
2012-01-18 08:20:14 51°20.011 2°52.29 5.2 51 2.6 102590 46
2012-01-18 08:20:19 51°20.029 2°52.289 5.8 23 2.6 102590 48
2012-01-18 08:20:25 51°20.051 2°52.289 5.5 55 2.6 102590 48
2012-01-18 08:20:29 51°20.065 2°52.288 4.3 26 2.6 102600 47
2012-01-18 08:20:34 51°20.084 2°52.287 3.2 53 2.6 102600 47
2012-01-18 08:20:39 51°20.102 2°52.287 4.9 19 2.6 102590 49
2012-01-18 08:20:45 51°20.124 2°52.287 4.4 55 2.6 102590 49
2012-01-18 08:20:49 51°20.138 2°52.288 4.7 19 2.6 102590 49
2012-01-18 08:20:54 51°20.156 2°52.288 4.8 53 2.6 102590 49
2012-01-18 08:20:59 51°20.175 2°52.289 5.8 24 2.6 102590 49
2012-01-18 08:21:04 51°20.193 2°52.29 5.3 58 2.6 102590 49
2012-01-18 08:21:09 51°20.211 2°52.29 5.6 24 2.6 102590 49
2012-01-18 08:21:14 51°20.23 2°52.291 5.6 55 2.6 102590 49
2012-01-18 08:21:19 51°20.248 2°52.291 4.4 25 2.6 102590 49
2012-01-18 08:21:25 51°20.27 2°52.292 4.3 51 2.6 102590 49
2012-01-18 08:21:29 51°20.285 2°52.292 4.3 26 2.6 102580 46
2012-01-18 08:21:34 51°20.303 2°52.293 4.3 49 2.6 102580 46
2012-01-18 08:21:39 51°20.32 2°52.293 3.5 18 2.6 102580 48
2012-01-18 08:21:45 51°20.342 2°52.293 5 55 2.6 102580 48
2012-01-18 08:21:49 51°20.356 2°52.294 5.2 22 2.6 102590 48
2012-01-18 08:21:54 51°20.374 2°52.295 4.7 52 2.6 102590 48
2012-01-18 08:22:00 51°20.396 2°52.296 5.2 19 2.6 102590 49
2012-01-18 08:22:05 51°20.415 2°52.297 5.7 56 2.6 102590 49
2012-01-18 08:22:09 51°20.429 2°52.3 5.2 22 2.6 102580 48
2012-01-18 08:22:14 51°20.446 2°52.302 5.8 51 2.6 102580 48
2012-01-18 08:22:19 51°20.465 2°52.305 4.5 23 2.6 102590 48
2012-01-18 08:22:25 51°20.486 2°52.309 4.9 51 2.6 102590 48
2012-01-18 08:22:29 51°20.5 2°52.31 4.7 21 2.6 102590 47
2012-01-18 08:22:34 51°20.518 2°52.314 4.2 52 2.6 102590 47
2012-01-18 08:22:39 51°20.536 2°52.317 4 22 2.6 102590 49
2012-01-18 08:22:44 51°20.554 2°52.32 3.6 51 2.6 102590 49
2012-01-18 08:22:49 51°20.572 2°52.322 4.6 22 2.6 102590 49
2012-01-18 08:22:53 51°20.586 2°52.324 4.6 55 2.6 102590 49
2012-01-18 08:22:59 51°20.609 2°52.326 5.7 21 2.7 102590 47
2012-01-18 08:23:04 51°20.627 2°52.328 5.4 50 2.7 102590 47
2012-01-18 08:23:09 51°20.645 2°52.33 4.9 26 2.7 102590 47
2012-01-18 08:23:14 51°20.663 2°52.332 4.5 57 2.7 102590 47
2012-01-18 08:23:19 51°20.681 2°52.335 3.4 25 2.7 102590 48
2012-01-18 08:23:25 51°20.703 2°52.338 3.9 53 2.7 102590 48
2012-01-18 08:23:29 51°20.717 2°52.34 4.9 25 2.7 102590 49
2012-01-18 08:23:34 51°20.735 2°52.343 3 55 2.7 102590 49
2012-01-18 08:23:39 51°20.753 2°52.345 4.7 24 2.7 102590 49
2012-01-18 08:23:44 51°20.772 2°52.349 2.6 74 2.7 102590 49
2012-01-18 08:23:49 51°20.79 2°52.351 4.1 27 2.8 102590 47
2012-01-18 08:23:55 51°20.812 2°52.353 4.4 55 2.8 102590 47
2012-01-18 08:23:59 51°20.827 2°52.356 4.2 21 2.8 102590 47
2012-01-18 08:24:04 51°20.845 2°52.357 4.4 50 2.8 102590 47
2012-01-18 08:24:09 51°20.863 2°52.36 4.7 25 2.8 102580 48
2012-01-18 08:24:14 51°20.882 2°52.361 3.7 53 2.8 102580 48
2012-01-18 08:24:19 51°20.9 2°52.364 3.4 26 2.8 102590 46
2012-01-18 08:24:24 51°20.918 2°52.366 3.5 52 2.8 102590 46
2012-01-18 08:24:29 51°20.936 2°52.368 4 23 2.8 102580 47
2012-01-18 08:24:34 51°20.955 2°52.37 4.3 51 2.8 102580 47
2012-01-18 08:24:39 51°20.973 2°52.372 6.3 24 2.9 102580 47
2012-01-18 08:24:45 51°20.995 2°52.374 5.7 49 2.9 102580 47
2012-01-18 08:24:49 51°21.009 2°52.377 5.7 24 2.9 102590 46
2012-01-18 08:24:54 51°21.028 2°52.378 4.9 310 2.9 102590 46
2012-01-18 08:24:59 51°21.046 2°52.379 4.9 21 2.9 102590 48
2012-01-18 08:25:04 51°21.064 2°52.381 4.6 51 2.9 102590 48
2012-01-18 08:25:09 51°21.083 2°52.382 4.2 23 2.9 102580 48
2012-01-18 08:25:14 51°21.101 2°52.383 4.4 51 2.9 102580 48
2012-01-18 08:25:19 51°21.119 2°52.384 5.3 23 2.9 102590 49
2012-01-18 08:25:24 51°21.137 2°52.386 4.7 57 2.9 102590 49
2012-01-18 08:25:29 51°21.156 2°52.387 4.4 26 2.9 102590 49
2012-01-18 08:25:33 51°21.17 2°52.388 5.6 51 2.9 102590 49
2012-01-18 08:25:39 51°21.192 2°52.391 6.1 25 2.9 102590 47
2012-01-18 08:25:44 51°21.21 2°52.392 4.8 76 2.9 102590 47
2012-01-18 08:25:49 51°21.229 2°52.395 5.2 20 2.9 102590 48
2012-01-18 08:25:54 51°21.247 2°52.398 4.8 54 2.9 102590 48
2012-01-18 08:25:59 51°21.265 2°52.4 4 25 2.9 102590 47
2012-01-18 08:26:04 51°21.284 2°52.402 4.5 50 2.9 102590 47
2012-01-18 08:26:09 51°21.302 2°52.405 4.2 23 2.9 102600 49
2012-01-18 08:26:14 51°21.321 2°52.406 4.9 56 2.9 102600 49
2012-01-18 08:26:19 51°21.339 2°52.41 5.4 19 2.8 102590 49
2012-01-18 08:26:24 51°21.357 2°52.411 4.6 55 2.8 102590 49
2012-01-18 08:26:29 51°21.376 2°52.414 4.2 19 2.8 102590 49
2012-01-18 08:26:34 51°21.395 2°52.417 4.6 50 2.8 102590 49
2012-01-18 08:26:40 51°21.417 2°52.42 4.7 22 2.8 102590 47
2012-01-18 08:26:44 51°21.432 2°52.423 4.4 56 2.8 102590 47
2012-01-18 08:26:49 51°21.45 2°52.426 4.4 25 2.8 102590 49
2012-01-18 08:26:54 51°21.469 2°52.429 4 57 2.8 102590 49
2012-01-18 08:26:59 51°21.488 2°52.432 3.2 21 2.8 102590 48
2012-01-18 08:27:04 51°21.506 2°52.437 4 51 2.8 102590 48
2012-01-18 08:27:09 51°21.525 2°52.44 4 25 2.8 102600 47
2012-01-18 08:27:14 51°21.543 2°52.445 3.6 50 2.8 102600 47
2012-01-18 08:27:19 51°21.562 2°52.448 4.4 18 2.8 102590 47
2012-01-18 08:27:25 51°21.584 2°52.454 4.1 51 2.8 102590 47
2012-01-18 08:27:29 51°21.599 2°52.456 3.8 21 2.8 102590 48
2012-01-18 08:27:34 51°21.618 2°52.459 4.1 52 2.8 102590 48
2012-01-18 08:27:39 51°21.637 2°52.461 3.1 19 2.8 102580 48
2012-01-18 08:27:45 51°21.659 2°52.464 4.6 75 2.8 102580 48
2012-01-18 08:27:49 51°21.674 2°52.465 4.5 22 2.8 102590 50
2012-01-18 08:27:54 51°21.692 2°52.468 4.6 55 2.8 102590 50
2012-01-18 08:27:59 51°21.711 2°52.47 3.9 19 2.9 102590 47
2012-01-18 08:28:04 51°21.729 2°52.473 3.7 52 2.9 102590 47
2012-01-18 08:28:09 51°21.748 2°52.474 2.9 25 2.9 102580 50
2012-01-18 08:28:15 51°21.77 2°52.476 3.5 51 2.9 102580 50
2012-01-18 08:28:19 51°21.785 2°52.477 4.2 23 2.9 102580 46
2012-01-18 08:28:24 51°21.804 2°52.479 3.5 57 2.9 102580 46
2012-01-18 08:28:29 51°21.822 2°52.48 4.8 24 2.8 102580 48
2012-01-18 08:28:34 51°21.841 2°52.482 3.8 57 2.8 102580 48
2012-01-18 08:28:39 51°21.86 2°52.482 4.2 22 2.9 102580 49
2012-01-18 08:28:44 51°21.878 2°52.483 3.4 78 2.9 102580 49
2012-01-18 08:28:49 51°21.897 2°52.485 4.4 26 2.9 102570 49
2012-01-18 08:28:54 51°21.915 2°52.487 4.1 57 2.9 102570 49
2012-01-18 08:28:59 51°21.934 2°52.487 4.8 24 2.9 102580 49
2012-01-18 08:29:05 51°21.956 2°52.491 4.9 50 2.9 102580 49
2012-01-18 08:29:09 51°21.971 2°52.492 4.1 21 2.9 102580 47
2012-01-18 08:29:14 51°21.99 2°52.495 4.8 51 2.9 102580 47
2012-01-18 08:29:19 51°22.008 2°52.498 4.6 21 2.9 102570 49
2012-01-18 08:29:25 51°22.031 2°52.502 3.6 51 2.9 102570 49
2012-01-18 08:29:29 51°22.046 2°52.504 4.9 19 2.9 102570 47
2012-01-18 08:29:34 51°22.064 2°52.506 4.4 57 2.9 102570 47
2012-01-18 08:29:39 51°22.083 2°52.509 4.5 19 2.9 102570 48
2012-01-18 08:29:44 51°22.102 2°52.51 5.6 80 2.9 102570 48
2012-01-18 08:29:49 51°22.121 2°52.512 5.6 21 2.9 102570 49
2012-01-18 08:29:53 51°22.135 2°52.514 5.5 56 2.9 102570 49
2012-01-18 08:29:59 51°22.158 2°52.515 5.2 18 2.9 102570 47
2012-01-18 08:30:04 51°22.177 2°52.517 6.4 51 2.9 102570 47
2012-01-18 08:30:09 51°22.196 2°52.518 5.3 18 2.9 102570 48
2012-01-18 08:30:14 51°22.215 2°52.52 3.8 57 2.9 102570 48
2012-01-18 08:30:19 51°22.233 2°52.523 4.2 24 2.9 102560 47
2012-01-18 08:30:25 51°22.256 2°52.527 3.2 52 2.9 102560 47
2012-01-18 08:30:29 51°22.271 2°52.528 3.6 19 2.9 102560 50
2012-01-18 08:30:34 51°22.289 2°52.532 4 52 2.9 102560 50
2012-01-18 08:30:39 51°22.308 2°52.535 4 23 2.9 102570 49
2012-01-18 08:30:44 51°22.326 2°52.539 4.1 52 2.9 102570 49
2012-01-18 08:30:49 51°22.346 2°52.543 4.9 26 2.9 102560 49
2012-01-18 08:30:54 51°22.364 2°52.547 4.5 49 2.9 102560 49
2012-01-18 08:30:59 51°22.383 2°52.551 4.4 20 2.9 102570 47
2012-01-18 08:31:04 51°22.401 2°52.555 3.6 54 2.9 102570 47
2012-01-18 08:31:09 51°22.42 2°52.559 5.2 26 2.9 102560 50
2012-01-18 08:31:14 51°22.439 2°52.562 3.7 56 2.9 102560 50
2012-01-18 08:31:19 51°22.458 2°52.565 4.7 25 2.9 102570 49
2012-01-18 08:31:24 51°22.476 2°52.568 3.3 50 2.9 102570 49
2012-01-18 08:31:29 51°22.495 2°52.57 3.9 17 2.9 102570 47
2012-01-18 08:31:34 51°22.514 2°52.574 3.9 52 2.9 102570 47
2012-01-18 08:31:39 51°22.533 2°52.576 4.6 20 2.9 102560 50
2012-01-18 08:31:45 51°22.555 2°52.579 4.5 79 2.9 102560 50
2012-01-18 08:31:49 51°22.57 2°52.581 4.2 24 2.9 102560 47
2012-01-18 08:31:54 51°22.589 2°52.583 3.7 52 2.9 102560 47
2012-01-18 08:31:59 51°22.607 2°52.584 4.2 20 2.9 102560 49
2012-01-18 08:32:05 51°22.629 2°52.587 3.7 55 2.9 102560 49
2012-01-18 08:32:09 51°22.644 2°52.59 3.9 21 2.9 102560 50
2012-01-18 08:32:14 51°22.663 2°52.593 3.6 53 2.9 102560 50
2012-01-18 08:32:19 51°22.682 2°52.598 4.1 19 2.9 102560 49
2012-01-18 08:32:24 51°22.701 2°52.602 2.6 53 2.9 102560 49
2012-01-18 08:32:29 51°22.719 2°52.608 2.1 24 2.9 102560 48
2012-01-18 08:32:34 51°22.738 2°52.614 2.2 57 2.9 102560 48
2012-01-18 08:32:39 51°22.757 2°52.619 2.3 23 2.9 102560 50
2012-01-18 08:32:45 51°22.779 2°52.626 1.9 78 2.9 102560 50
2012-01-18 08:32:49 51°22.794 2°52.629 3.4 26 3 102560 49
2012-01-18 08:32:54 51°22.812 2°52.635 3.4 52 3 102560 49
2012-01-18 08:32:59 51°22.831 2°52.639 3.1 19 3.1 102560 50
2012-01-18 08:33:05 51°22.853 2°52.645 3.7 57 3.1 102560 50
2012-01-18 08:33:09 51°22.869 2°52.648 3.1 26 3.1 102560 51
2012-01-18 08:33:14 51°22.887 2°52.652 2.7 49 3.1 102560 51
2012-01-18 08:33:20 51°22.91 2°52.657 3.4 21 3.1 102560 47
2012-01-18 08:33:25 51°22.928 2°52.66 4.1 57 3.1 102560 47
2012-01-18 08:33:29 51°22.943 2°52.662 4.2 21 3.2 102550 47
2012-01-18 08:33:34 51°22.962 2°52.665 4.7 56 3.2 102550 47
2012-01-18 08:33:39 51°22.98 2°52.668 3.7 18 3.2 102560 47
2012-01-18 08:33:45 51°23.003 2°52.672 4.3 77 3.2 102560 47
2012-01-18 08:33:49 51°23.018 2°52.674 2.6 19 3.1 102560 48
2012-01-18 08:33:54 51°23.037 2°52.678 4.8 52 3.1 102560 48
2012-01-18 08:33:59 51°23.055 2°52.682 4.6 27 3.2 102560 50
2012-01-18 08:34:05 51°23.078 2°52.687 4.2 57 3.2 102560 50
2012-01-18 08:34:09 51°23.093 2°52.69 4.6 23 3.1 102560 47
2012-01-18 08:34:14 51°23.112 2°52.693 4.1 55 3.1 102560 47
2012-01-18 08:34:19 51°23.13 2°52.698 3.6 24 3.1 102560 46
2012-01-18 08:34:25 51°23.153 2°52.703 4.4 55 3.1 102560 46
2012-01-18 08:34:29 51°23.168 2°52.706 3.3 25 3.1 102570 49
2012-01-18 08:34:34 51°23.186 2°52.712 5.5 54 3.1 102570 49
2012-01-18 08:34:39 51°23.205 2°52.715 3.8 25 3.1 102560 49
2012-01-18 08:34:45 51°23.227 2°52.722 2.7 50 3.1 102560 49
2012-01-18 08:34:49 51°23.242 2°52.724 3.9 27 3 102560 46
2012-01-18 08:34:54 51°23.261 2°52.73 2 56 3 102560 46
2012-01-18 08:34:59 51°23.28 2°52.735 2.9 25 3 102560 48
2012-01-18 08:35:05 51°23.302 2°52.742 2.2 50 3 102560 48
2012-01-18 08:35:09 51°23.317 2°52.746 2.4 21 3 102560 47
2012-01-18 08:35:14 51°23.336 2°52.752 2.5 53 3 102560 47
2012-01-18 08:35:19 51°23.354 2°52.758 3 22 3.1 102560 47
2012-01-18 08:35:25 51°23.376 2°52.766 4.2 49 3.1 102560 47
2012-01-18 08:35:29 51°23.391 2°52.773 2.9 24 3.1 102560 49
2012-01-18 08:35:34 51°23.409 2°52.779 1.4 54 3.1 102560 49
2012-01-18 08:35:39 51°23.427 2°52.787 1.8 23 3.2 102560 48
2012-01-18 08:35:45 51°23.45 2°52.795 2.7 74 3.2 102560 48
2012-01-18 08:35:49 51°23.464 2°52.802 3.9 21 3.3 102560 47
2012-01-18 08:35:53 51°23.478 2°52.808 2.1 49 3.3 102560 47
2012-01-18 08:35:59 51°23.5 2°52.817 2.8 18 3.4 102560 50
2012-01-18 08:36:05 51°23.523 2°52.827 2.4 56 3.4 102560 50
2012-01-18 08:36:09 51°23.538 2°52.832 3.9 18 3.5 102560 50
2012-01-18 08:36:14 51°23.556 2°52.841 2.6 50 3.5 102560 50
2012-01-18 08:36:19 51°23.574 2°52.847 2.7 26 3.6 102560 48
2012-01-18 08:36:24 51°23.592 2°52.856 4.2 50 3.6 102560 48
2012-01-18 08:36:29 51°23.611 2°52.862 4.4 25 3.6 102560 48
2012-01-18 08:36:34 51°23.63 2°52.869 5.4 54 3.6 102560 48
2012-01-18 08:36:39 51°23.648 2°52.877 4 21 3.7 102560 48
2012-01-18 08:36:44 51°23.667 2°52.884 5.1 53 3.7 102560 48
2012-01-18 08:36:49 51°23.685 2°52.892 3.9 19 3.7 102560 49
2012-01-18 08:36:53 51°23.7 2°52.897 2.1 49 3.7 102560 49
2012-01-18 08:36:59 51°23.722 2°52.905 3.5 44 3.6 102560 49
2012-01-18 08:37:04 51°23.74 2°52.914 2.7 55 3.6 102560 49
2012-01-18 08:37:09 51°23.758 2°52.92 3 23 3.6 102560 47
2012-01-18 08:37:14 51°23.777 2°52.926 3.8 51 3.6 102560 47
2012-01-18 08:37:19 51°23.795 2°52.932 3.8 26 3.6 102570 47
2012-01-18 08:37:24 51°23.814 2°52.937 4.2 50 3.6 102570 47
2012-01-18 08:37:29 51°23.832 2°52.942 5.7 21 3.7 102570 50
2012-01-18 08:37:34 51°23.851 2°52.948 4.2 49 3.7 102570 50
2012-01-18 08:37:39 51°23.869 2°52.954 5 24 3.7 102570 49
2012-01-18 08:37:45 51°23.891 2°52.959 5.7 80 3.7 102570 49
2012-01-18 08:37:49 51°23.906 2°52.963 5.3 25 3.6 102570 48
2012-01-18 08:37:54 51°23.924 2°52.968 4.4 52 3.6 102570 48
2012-01-18 08:37:59 51°23.943 2°52.975 4.8 19 3.6 102560 49
2012-01-18 08:38:05 51°23.965 2°52.98 4.6 51 3.6 102560 49
2012-01-18 08:38:09 51°23.98 2°52.985 5.2 23 3.5 102570 48
2012-01-18 08:38:14 51°23.998 2°52.988 3.4 53 3.5 102570 48
2012-01-18 08:38:19 51°24.017 2°52.995 5.9 18 3.5 102570 47
2012-01-18 08:38:25 51°24.039 2°53 4.3 57 3.5 102570 47
2012-01-18 08:38:29 51°24.054 2°53.004 3.5 20 3.4 102570 47
2012-01-18 08:38:34 51°24.072 2°53.009 2.3 49 3.4 102570 47
2012-01-18 08:38:39 51°24.091 2°53.013 4.1 24 3.4 102570 46
2012-01-18 08:38:45 51°24.113 2°53.018 4.4 56 3.4 102570 46
2012-01-18 08:38:49 51°24.128 2°53.022 3.4 25 3.4 102560 49
2012-01-18 08:38:54 51°24.147 2°53.026 2.3 57 3.4 102560 49
2012-01-18 08:38:59 51°24.165 2°53.031 4.2 22 3.4 102560 49
2012-01-18 08:39:04 51°24.184 2°53.035 2.6 55 3.4 102560 49
2012-01-18 08:39:09 51°24.203 2°53.04 2.7 25 3.4 102570 48
2012-01-18 08:39:14 51°24.222 2°53.043 4 50 3.4 102570 48
2012-01-18 08:39:19 51°24.24 2°53.049 2.6 25 3.4 102560 47
2012-01-18 08:39:24 51°24.258 2°53.052 4.1 56 3.4 102560 47
2012-01-18 08:39:29 51°24.277 2°53.058 3.6 21 3.5 102560 50
2012-01-18 08:39:34 51°24.295 2°53.064 2.6 52 3.5 102560 50
2012-01-18 08:39:39 51°24.313 2°53.069 2.2 25 3.5 102560 47
2012-01-18 08:39:44 51°24.331 2°53.076 3.5 75 3.5 102560 47
2012-01-18 08:39:49 51°24.349 2°53.082 2.5 23 3.5 102560 50
2012-01-18 08:39:54 51°24.367 2°53.09 3.7 54 3.5 102560 50
2012-01-18 08:39:59 51°24.385 2°53.097 3.3 26 3.6 102540 50
2012-01-18 08:40:04 51°24.404 2°53.103 3 56 3.6 102540 50
2012-01-18 08:40:09 51°24.422 2°53.109 2.8 24 3.7 102570 48
2012-01-18 08:40:14 51°24.441 2°53.117 3.1 52 3.7 102570 48
2012-01-18 08:40:19 51°24.459 2°53.123 3.4 22 3.8 102560 50
2012-01-18 08:40:25 51°24.481 2°53.131 2.9 56 3.8 102560 50
2012-01-18 08:40:29 51°24.495 2°53.137 2.8 20 3.8 102560 49
2012-01-18 08:40:34 51°24.513 2°53.144 3.3 54 3.8 102560 49
2012-01-18 08:40:39 51°24.532 2°53.149 3.8 20 3.8 102570 48
2012-01-18 08:40:44 51°24.55 2°53.155 5 55 3.8 102570 48
2012-01-18 08:40:49 51°24.568 2°53.159 5 22 3.9 102570 49
2012-01-18 08:40:54 51°24.587 2°53.165 4.1 57 3.9 102570 49
2012-01-18 08:40:59 51°24.605 2°53.168 4.9 19 3.8 102570 50
2012-01-18 08:41:04 51°24.623 2°53.172 4.5 52 3.8 102570 50
2012-01-18 08:41:09 51°24.641 2°53.178 4.7 19 3.7 102560 48
2012-01-18 08:41:14 51°24.659 2°53.181 4.2 56 3.7 102560 48
2012-01-18 08:41:19 51°24.677 2°53.188 3.2 26 3.7 102570 46
2012-01-18 08:41:24 51°24.696 2°53.193 2.6 51 3.7 102570 46
2012-01-18 08:41:29 51°24.714 2°53.199 2.2 22 3.6 102570 46
2012-01-18 08:41:34 51°24.732 2°53.205 3 57 3.6 102570 46
2012-01-18 08:41:39 51°24.75 2°53.211 2.7 19 3.6 102560 46
2012-01-18 08:41:44 51°24.769 2°53.216 2.8 81 3.6 102560 46
2012-01-18 08:41:49 51°24.787 2°53.221 4.1 18 3.6 102570 46
2012-01-18 08:41:55 51°24.81 2°53.227 2.7 53 3.6 102570 46
2012-01-18 08:41:59 51°24.824 2°53.23 5.1 18 3.7 102570 50
2012-01-18 08:42:04 51°24.843 2°53.235 5.5 56 3.7 102570 50
2012-01-18 08:42:09 51°24.861 2°53.239 4.6 19 3.8 102570 47
2012-01-18 08:42:14 51°24.88 2°53.244 5.7 50 3.8 102570 47
2012-01-18 08:42:19 51°24.898 2°53.248 4.8 20 3.8 102560 48
2012-01-18 08:42:24 51°24.917 2°53.253 4.8 51 3.8 102560 48
2012-01-18 08:42:29 51°24.935 2°53.257 6 20 3.7 102560 49
2012-01-18 08:42:34 51°24.953 2°53.261 5.6 49 3.7 102560 49
2012-01-18 08:42:39 51°24.972 2°53.267 3.9 19 3.7 102560 49
2012-01-18 08:42:45 51°24.994 2°53.271 4.8 54 3.7 102560 49
2012-01-18 08:42:49 51°25.008 2°53.276 5 21 3.7 102560 47
2012-01-18 08:42:54 51°25.027 2°53.28 4.4 52 3.7 102560 47
2012-01-18 08:42:59 51°25.045 2°53.286 4 20 3.7 102560 49
2012-01-18 08:43:05 51°25.067 2°53.293 4.1 51 3.7 102560 49
2012-01-18 08:43:09 51°25.081 2°53.298 3.1 24 3.6 102560 47
2012-01-18 08:43:14 51°25.1 2°53.306 2.3 51 3.6 102560 47
2012-01-18 08:43:19 51°25.118 2°53.311 2.7 21 3.6 102560 48
2012-01-18 08:43:24 51°25.136 2°53.32 3.8 50 3.6 102560 48
2012-01-18 08:43:29 51°25.154 2°53.324 3.1 25 3.6 102560 45
2012-01-18 08:43:34 51°25.172 2°53.333 1.5 57 3.6 102560 45
2012-01-18 08:43:39 51°25.19 2°53.338 2.2 20 3.7 102560 50
2012-01-18 08:43:44 51°25.209 2°53.345 2.5 81 3.7 102560 50
2012-01-18 08:43:49 51°25.227 2°53.351 2.7 21 3.8 102560 50
2012-01-18 08:43:54 51°25.245 2°53.357 2.7 58 3.8 102560 50
2012-01-18 08:43:59 51°25.264 2°53.362 3.5 23 3.9 102560 49
2012-01-18 08:44:04 51°25.282 2°53.369 4 51 3.9 102560 49
2012-01-18 08:44:09 51°25.3 2°53.374 3.4 20 4 102570 51
2012-01-18 08:44:14 51°25.319 2°53.38 3.6 56 4 102570 51
2012-01-18 08:44:19 51°25.337 2°53.386 3.1 19 4 102560 50
2012-01-18 08:44:25 51°25.359 2°53.392 4.2 50 4 102560 50
2012-01-18 08:44:29 51°25.373 2°53.396 3.6 21 4 102560 48
2012-01-18 08:44:34 51°25.391 2°53.402 4.2 57 4 102560 48
2012-01-18 08:44:39 51°25.409 2°53.409 4.1 28 4 102560 50
2012-01-18 08:44:44 51°25.427 2°53.416 2.8 55 4 102560 50
2012-01-18 08:44:49 51°25.446 2°53.421 3.3 19 4 102570 47
2012-01-18 08:44:54 51°25.464 2°53.427 3.6 52 4 102570 47
2012-01-18 08:44:59 51°25.483 2°53.433 4 22 4 102570 47
2012-01-18 08:45:04 51°25.501 2°53.438 3.1 56 4 102570 47
2012-01-18 08:45:09 51°25.52 2°53.446 2.7 25 4 102570 48
2012-01-18 08:45:14 51°25.538 2°53.453 4 55 4 102570 48
2012-01-18 08:45:19 51°25.557 2°53.459 4.4 23 4 102570 47
2012-01-18 08:45:25 51°25.578 2°53.468 2.8 50 4 102570 47
2012-01-18 08:45:29 51°25.593 2°53.472 3.2 27 4 102570 47
2012-01-18 08:45:34 51°25.611 2°53.48 4.2 51 4 102570 47
2012-01-18 08:45:39 51°25.63 2°53.484 5.4 22 4 102570 49
2012-01-18 08:45:44 51°25.648 2°53.491 4.8 75 4 102570 49
2012-01-18 08:45:49 51°25.666 2°53.497 5.6 21 3.9 102570 46
2012-01-18 08:45:54 51°25.684 2°53.503 5.7 52 3.9 102570 46
2012-01-18 08:45:59 51°25.703 2°53.508 5 24 3.9 102570 46
2012-01-18 08:46:04 51°25.722 2°53.514 4.1 55 3.9 102570 46
2012-01-18 08:46:09 51°25.74 2°53.518 3.9 21 3.9 102570 46
2012-01-18 08:46:14 51°25.758 2°53.523 5.1 49 3.9 102570 46
2012-01-18 08:46:19 51°25.777 2°53.528 5.1 19 3.9 102570 48
2012-01-18 08:46:25 51°25.799 2°53.534 5 56 3.9 102570 48
2012-01-18 08:46:29 51°25.814 2°53.538 4.8 24 3.8 102570 48
2012-01-18 08:46:34 51°25.832 2°53.544 5.1 55 3.8 102570 48
2012-01-18 08:46:40 51°25.854 2°53.549 6.2 20 3.9 102570 47
2012-01-18 08:46:45 51°25.873 2°53.554 3.5 56 3.9 102570 47
2012-01-18 08:46:49 51°25.887 2°53.56 5.7 25 3.8 102570 48
2012-01-18 08:46:54 51°25.906 2°53.562 4.7 52 3.8 102570 48
2012-01-18 08:46:59 51°25.924 2°53.571 5.6 25 3.8 102570 47
2012-01-18 08:47:05 51°25.947 2°53.575 6.8 51 3.8 102570 47
2012-01-18 08:47:09 51°25.962 2°53.581 6.5 20 3.8 102580 47
2012-01-18 08:47:14 51°25.98 2°53.588 5.5 51 3.8 102580 47
2012-01-18 08:47:20 51°26.002 2°53.597 5 25 3.8 102570 47
2012-01-18 08:47:25 51°26.021 2°53.604 4.1 50 3.8 102570 47
2012-01-18 08:47:29 51°26.036 2°53.61 4.8 19 3.7 102580 48
2012-01-18 08:47:34 51°26.054 2°53.616 5.5 56 3.7 102580 48
2012-01-18 08:47:39 51°26.072 2°53.624 5.5 26 3.7 102580 46
2012-01-18 08:47:45 51°26.094 2°53.63 4.7 53 3.7 102580 46
2012-01-18 08:47:49 51°26.109 2°53.636 5.5 19 3.7 102570 48
2012-01-18 08:47:54 51°26.127 2°53.64 4.9 49 3.7 102570 48
2012-01-18 08:47:59 51°26.145 2°53.647 4.8 26 3.7 102580 47
2012-01-18 08:48:05 51°26.167 2°53.653 6.2 56 3.7 102580 47
2012-01-18 08:48:09 51°26.182 2°53.659 4.8 23 3.7 102580 49
2012-01-18 08:48:14 51°26.2 2°53.665 5.3 55 3.7 102580 49
2012-01-18 08:48:19 51°26.218 2°53.672 4.3 22 3.7 102580 48
2012-01-18 08:48:25 51°26.24 2°53.679 5.3 55 3.7 102580 48
2012-01-18 08:48:29 51°26.255 2°53.687 5.3 24 3.6 102570 48
2012-01-18 08:48:35 51°26.277 2°53.693 5.4 51 3.6 102570 48
2012-01-18 08:48:39 51°26.291 2°53.7 6.1 26 3.7 102580 49
2012-01-18 08:48:44 51°26.31 2°53.703 5.6 56 3.7 102580 49
2012-01-18 08:48:49 51°26.328 2°53.711 4.1 24 3.7 102580 46
2012-01-18 08:48:54 51°26.346 2°53.717 5 52 3.7 102580 46
2012-01-18 08:49:00 51°26.368 2°53.724 5 25 3.6 102580 49
2012-01-18 08:49:05 51°26.386 2°53.73 4.3 50 3.6 102580 49
2012-01-18 08:49:09 51°26.401 2°53.736 3.6 18 3.6 102580 47
2012-01-18 08:49:13 51°26.416 2°53.74 3.4 50 3.6 102580 47
2012-01-18 08:49:19 51°26.438 2°53.746 3.4 19 3.6 102580 47
2012-01-18 08:49:25 51°26.46 2°53.753 4.5 52 3.6 102580 47
2012-01-18 08:49:29 51°26.475 2°53.757 4.2 25 3.6 102580 47
2012-01-18 08:49:34 51°26.493 2°53.763 4.4 54 3.6 102580 47
2012-01-18 08:49:39 51°26.511 2°53.768 5.1 19 3.6 102580 49
2012-01-18 08:49:45 51°26.533 2°53.777 4.4 75 3.6 102580 49
2012-01-18 08:49:49 51°26.548 2°53.779 5.8 24 3.7 102580 50
2012-01-18 08:49:54 51°26.566 2°53.788 3.4 54 3.7 102580 50
2012-01-18 08:50:00 51°26.589 2°53.792 4 22 3.7 102580 47
2012-01-18 08:50:04 51°26.603 2°53.797 3.8 48 3.7 102580 47
2012-01-18 08:50:09 51°26.622 2°53.802 3.7 270 3.7 102580 49
2012-01-18 08:50:13 51°26.636 2°53.807 5.2 57 3.7 102580 49
2012-01-18 08:50:19 51°26.658 2°53.814 5.7 25 3.6 102580 49
2012-01-18 08:50:24 51°26.677 2°53.819 5.1 54 3.6 102580 49
2012-01-18 08:50:29 51°26.695 2°53.827 3.7 19 3.7 102580 49
2012-01-18 08:50:34 51°26.714 2°53.832 3.6 51 3.7 102580 49
2012-01-18 08:50:39 51°26.733 2°53.839 3.3 20 3.6 102580 47
2012-01-18 08:50:45 51°26.756 2°53.844 3.9 51 3.6 102580 47
2012-01-18 08:50:49 51°26.771 2°53.851 3.4 25 3.6 102580 50
2012-01-18 08:50:54 51°26.79 2°53.856 3.4 52 3.6 102580 50
2012-01-18 08:51:00 51°26.812 2°53.866 3.5 270 3.6 102580 46
2012-01-18 08:51:05 51°26.83 2°53.873 4.3 55 3.6 102580 46
2012-01-18 08:51:09 51°26.845 2°53.878 5.2 26 3.6 102580 47
2012-01-18 08:51:13 51°26.86 2°53.883 4.2 51 3.6 102580 47
2012-01-18 08:51:19 51°26.882 2°53.893 4.2 24 3.7 102580 50
2012-01-18 08:51:25 51°26.904 2°53.902 3.9 53 3.7 102580 50
2012-01-18 08:51:29 51°26.919 2°53.908 4.7 19 3.7 102580 50
2012-01-18 08:51:34 51°26.937 2°53.915 4.8 56 3.7 102580 50
2012-01-18 08:51:39 51°26.956 2°53.922 5.2 26 3.7 102580 47
2012-01-18 08:51:45 51°26.978 2°53.931 5.2 73 3.7 102580 47
2012-01-18 08:51:49 51°26.992 2°53.936 4.5 19 3.7 102590 47
2012-01-18 08:51:54 51°27.011 2°53.94 4 56 3.7 102590 47
2012-01-18 08:51:59 51°27.03 2°53.946 3.7 18 3.6 102580 47
2012-01-18 08:52:05 51°27.052 2°53.954 4.1 57 3.6 102580 47
2012-01-18 08:52:09 51°27.067 2°53.958 3.8 268 3.7 102580 47
2012-01-18 08:52:13 51°27.082 2°53.964 4.5 59 3.7 102580 47
2012-01-18 08:52:19 51°27.105 2°53.968 4.6 26 3.7 102580 47
2012-01-18 08:52:25 51°27.127 2°53.975 5.9 56 3.7 102580 47
2012-01-18 08:52:29 51°27.142 2°53.978 4.8 20 3.7 102580 49
2012-01-18 08:52:34 51°27.161 2°53.985 5.1 57 3.7 102580 49
2012-01-18 08:52:39 51°27.179 2°53.987 3.7 24 3.7 102580 47
2012-01-18 08:52:45 51°27.202 2°53.995 3.3 51 3.7 102580 47
2012-01-18 08:52:49 51°27.217 2°53.998 3.8 21 3.7 102580 49
2012-01-18 08:52:54 51°27.235 2°54.003 4.8 53 3.7 102580 49
2012-01-18 08:53:00 51°27.258 2°54.009 4.4 22 3.7 102580 50
2012-01-18 08:53:05 51°27.276 2°54.014 4.3 52 3.7 102580 50
2012-01-18 08:53:09 51°27.291 2°54.017 4.6 23 3.7 102580 47
2012-01-18 08:53:15 51°27.313 2°54.023 4.9 55 3.7 102580 47
2012-01-18 08:53:19 51°27.328 2°54.027 5.8 21 3.7 102580 48
2012-01-18 08:53:24 51°27.347 2°54.031 5.2 55 3.7 102580 48
2012-01-18 08:53:29 51°27.366 2°54.036 5.3 21 3.7 102580 47
2012-01-18 08:53:35 51°27.388 2°54.04 4.4 54 3.7 102580 47
2012-01-18 08:53:39 51°27.403 2°54.046 5.2 19 3.7 102580 46
2012-01-18 08:53:45 51°27.426 2°54.048 3.1 79 3.7 102580 46
2012-01-18 08:53:49 51°27.441 2°54.052 3.6 23 3.7 102580 48
2012-01-18 08:53:53 51°27.456 2°54.056 4.3 51 3.7 102580 48
2012-01-18 08:53:59 51°27.479 2°54.06 5.1 27 3.7 102580 48
2012-01-18 08:54:05 51°27.501 2°54.066 4.2 49 3.7 102580 48
2012-01-18 08:54:09 51°27.517 2°54.069 4.4 23 3.7 102570 50
2012-01-18 08:54:14 51°27.536 2°54.072 4.3 58 3.7 102570 50
2012-01-18 08:54:19 51°27.555 2°54.077 3.6 21 3.7 102570 48
2012-01-18 08:54:25 51°27.577 2°54.081 4.1 306 3.7 102570 48
2012-01-18 08:54:29 51°27.592 2°54.084 4.7 25 3.7 102570 47
2012-01-18 08:54:34 51°27.611 2°54.088 6 49 3.7 102570 47
2012-01-18 08:54:40 51°27.634 2°54.095 4.4 19 3.7 102580 45
2012-01-18 08:54:45 51°27.653 2°54.099 5.5 57 3.7 102580 45
2012-01-18 08:54:49 51°27.668 2°54.103 4.1 23 3.7 102560 48
2012-01-18 08:54:53 51°27.683 2°54.108 4.5 50 3.7 102560 48
2012-01-18 08:54:59 51°27.706 2°54.113 4 20 3.7 102570 47
2012-01-18 08:55:04 51°27.725 2°54.12 4 50 3.7 102570 47
2012-01-18 08:55:09 51°27.744 2°54.126 4.8 21 3.7 102570 50
2012-01-18 08:55:14 51°27.763 2°54.132 4 57 3.7 102570 50
2012-01-18 08:55:19 51°27.783 2°54.138 4 26 3.6 102570 49
2012-01-18 08:55:25 51°27.806 2°54.145 3.9 55 3.6 102570 49
2012-01-18 08:55:29 51°27.821 2°54.148 3.8 20 3.6 102570 50
2012-01-18 08:55:34 51°27.839 2°54.155 2.1 50 3.6 102570 50
2012-01-18 08:55:39 51°27.859 2°54.161 3.5 20 3.6 102570 49
2012-01-18 08:55:45 51°27.881 2°54.169 2.4 49 3.6 102570 49
2012-01-18 08:55:49 51°27.897 2°54.173 1.5 18 3.6 102570 47
2012-01-18 08:55:53 51°27.912 2°54.177 2.7 51 3.6 102570 47
2012-01-18 08:55:59 51°27.935 2°54.186 3.2 19 3.6 102570 50
2012-01-18 08:56:05 51°27.958 2°54.19 3.2 49 3.6 102570 50
2012-01-18 08:56:09 51°27.973 2°54.197 3.1 24 3.7 102570 47
2012-01-18 08:56:14 51°27.992 2°54.201 5.1 53 3.7 102570 47
2012-01-18 08:56:19 51°28.011 2°54.208 4.1 26 3.7 102570 49
2012-01-18 08:56:25 51°28.033 2°54.212 4.1 55 3.7 102570 49
2012-01-18 08:56:29 51°28.048 2°54.218 4.2 21 3.7 102570 47
2012-01-18 08:56:34 51°28.067 2°54.222 3.5 57 3.7 102570 47
2012-01-18 08:56:39 51°28.086 2°54.226 5 26 3.7 102570 47
2012-01-18 08:56:44 51°28.105 2°54.231 4.6 55 3.7 102570 47
2012-01-18 08:56:49 51°28.124 2°54.235 5 25 3.7 102560 49
2012-01-18 08:56:53 51°28.138 2°54.24 4.3 51 3.7 102560 49
2012-01-18 08:56:59 51°28.161 2°54.247 5.8 22 3.8 102560 50
2012-01-18 08:57:04 51°28.179 2°54.251 5.4 50 3.8 102560 50
2012-01-18 08:57:09 51°28.198 2°54.257 4.5 19 3.8 102560 48
2012-01-18 08:57:14 51°28.216 2°54.259 4.5 51 3.8 102560 48
2012-01-18 08:57:19 51°28.235 2°54.264 4.5 26 3.8 102560 49
2012-01-18 08:57:25 51°28.257 2°54.268 3.8 50 3.8 102560 49
2012-01-18 08:57:29 51°28.272 2°54.273 4.4 27 3.8 102560 48
2012-01-18 08:57:34 51°28.291 2°54.278 3.8 52 3.8 102560 48
2012-01-18 08:57:40 51°28.314 2°54.284 3 25 3.8 102560 47
2012-01-18 08:57:45 51°28.332 2°54.288 3.4 50 3.8 102560 47
2012-01-18 08:57:49 51°28.347 2°54.294 4.1 25 3.8 102560 47
2012-01-18 08:57:53 51°28.362 2°54.298 4.4 56 3.8 102560 47
2012-01-18 08:57:59 51°28.384 2°54.303 4.1 20 3.8 102560 48
2012-01-18 08:58:05 51°28.407 2°54.309 5.7 53 3.8 102560 48
2012-01-18 08:58:09 51°28.421 2°54.312 6.9 26 3.8 102550 50
2012-01-18 08:58:14 51°28.439 2°54.317 5.3 56 3.8 102550 50
2012-01-18 08:58:19 51°28.457 2°54.321 5.9 23 3.8 102550 47
2012-01-18 08:58:25 51°28.48 2°54.327 5.2 53 3.8 102550 47
2012-01-18 08:58:29 51°28.495 2°54.329 5.3 19 3.8 102550 49
2012-01-18 08:58:34 51°28.513 2°54.333 5 51 3.8 102550 49
2012-01-18 08:58:39 51°28.532 2°54.337 6.4 23 3.8 102550 47
2012-01-18 08:58:45 51°28.554 2°54.341 5.5 55 3.8 102550 47
2012-01-18 08:58:49 51°28.569 2°54.346 5.3 21 3.8 102560 47
2012-01-18 08:58:53 51°28.584 2°54.345 4.9 51 3.8 102560 47
2012-01-18 08:58:59 51°28.606 2°54.353 5.1 20 3.7 102550 46
2012-01-18 08:59:05 51°28.628 2°54.356 5.3 52 3.7 102550 46
2012-01-18 08:59:09 51°28.643 2°54.36 5.8 27 3.7 102550 47
2012-01-18 08:59:14 51°28.661 2°54.363 5.3 56 3.7 102550 47
2012-01-18 08:59:19 51°28.68 2°54.368 5.4 20 3.7 102550 49
2012-01-18 08:59:25 51°28.702 2°54.371 5.3 54 3.7 102550 49
2012-01-18 08:59:29 51°28.717 2°54.377 4.9 26 3.7 102550 49
2012-01-18 08:59:34 51°28.735 2°54.382 4.7 50 3.7 102550 49
2012-01-18 08:59:39 51°28.753 2°54.389 4.8 27 3.7 102550 49
2012-01-18 08:59:45 51°28.776 2°54.394 5.9 54 3.7 102550 49
2012-01-18 08:59:49 51°28.791 2°54.399 6.2 18 3.8 102550 50
2012-01-18 08:59:54 51°28.809 2°54.404 5.5 53 3.8 102550 50
2012-01-18 08:59:59 51°28.828 2°54.409 6.3 27 3.8 102550 48
2012-01-18 09:00:05 51°28.85 2°54.414 5.7 56 3.8 102550 48
2012-01-18 09:00:09 51°28.864 2°54.419 6.6 20 3.8 102550 50
2012-01-18 09:00:14 51°28.883 2°54.419 4.7 50 3.8 102550 50
2012-01-18 09:00:19 51°28.901 2°54.426 4.4 20 3.8 102550 48
2012-01-18 09:00:25 51°28.923 2°54.431 4.6 57 3.8 102550 48
2012-01-18 09:00:29 51°28.937 2°54.435 3.7 24 3.7 102550 50
2012-01-18 09:00:34 51°28.956 2°54.44 4.3 54 3.7 102550 50
2012-01-18 09:00:40 51°28.978 2°54.447 6.1 27 3.7 102550 47
2012-01-18 09:00:45 51°28.997 2°54.45 5.4 55 3.7 102550 47
2012-01-18 09:00:49 51°29.011 2°54.455 5.4 23 3.8 102550 47
2012-01-18 09:00:54 51°29.03 2°54.456 5.9 51 3.8 102550 47
2012-01-18 09:00:59 51°29.048 2°54.462 6.2 18 3.8 102550 50
2012-01-18 09:01:05 51°29.07 2°54.464 5.2 53 3.8 102550 50
2012-01-18 09:01:09 51°29.084 2°54.466 4.7 20 3.8 102550 50
2012-01-18 09:01:14 51°29.103 2°54.47 5.8 57 3.8 102550 50
2012-01-18 09:01:19 51°29.121 2°54.469 4.6 23 3.7 102540 50
2012-01-18 09:01:25 51°29.143 2°54.473 4.6 52 3.7 102540 50
2012-01-18 09:01:29 51°29.158 2°54.473 3.4 20 3.7 102540 50
2012-01-18 09:01:34 51°29.176 2°54.475 4.6 52 3.7 102540 50
2012-01-18 09:01:39 51°29.194 2°54.477 4.2 24 3.7 102540 46
2012-01-18 09:01:45 51°29.217 2°54.479 5.4 52 3.7 102540 46
2012-01-18 09:01:49 51°29.232 2°54.48 5.6 27 3.7 102550 50
2012-01-18 09:01:54 51°29.25 2°54.481 5.1 51 3.7 102550 50
2012-01-18 09:02:00 51°29.273 2°54.483 4.5 21 3.7 102550 50
2012-01-18 09:02:05 51°29.292 2°54.484 4.9 57 3.7 102550 50
2012-01-18 09:02:09 51°29.306 2°54.486 4.4 268 3.7 102550 48
2012-01-18 09:02:13 51°29.321 2°54.487 5.8 56 3.7 102550 48
2012-01-18 09:02:19 51°29.343 2°54.487 5.1 24 3.7 102550 52
2012-01-18 09:02:25 51°29.365 2°54.489 4 53 3.7 102550 52
2012-01-18 09:02:29 51°29.38 2°54.489 5.8 24 3.8 102540 49
2012-01-18 09:02:34 51°29.398 2°54.489 5.2 51 3.8 102540 49
2012-01-18 09:02:39 51°29.417 2°54.491 5.7 23 3.8 102550 50
2012-01-18 09:02:45 51°29.439 2°54.491 4.1 54 3.8 102550 50
2012-01-18 09:02:49 51°29.454 2°54.491 3.8 270 3.8 102550 50
2012-01-18 09:02:54 51°29.472 2°54.492 1.9 49 3.8 102550 50
2012-01-18 09:03:00 51°29.494 2°54.493 3.9 270 3.8 102540 49
2012-01-18 09:03:05 51°29.513 2°54.493 4.9 57 3.8 102540 49
2012-01-18 09:03:09 51°29.528 2°54.494 6 20 3.8 102550 51
2012-01-18 09:03:14 51°29.546 2°54.495 4.5 57 3.8 102550 51